Location: Neuvy Saint Sepulchre
(46.5953°N, 1.8122°E)
Time: 09:43:19
(UTC+02:00)

ISS - Pass Details

Date: 12 July 2021
Orbit: 419 x 421 km, 51.6° (Epoch: 04 August)

Event Time Altitude Azimuth Distance (km) Brightness Sun altitude
Exits shadow 00:31:54 30° 82° (E) 776 -2.6 -18.7°
Drops below altitude 10° 00:33:51 10° 69° (ENE) 1,504 -0.9 -18.8°
Sets 00:35:58 0° 65° (ENE) 2,371 0.1 -18.9°
